User: anonymous   Login
Location: Okie-Tex Star Party
(36.8978°N, 102.9520°W)
Time: 00:47:24
(UTC-06:00)
Language:

Hamsat - Orbit

View from above orbital plane
View from above orbital plane
View from above satellite
View from above satellite

Ground track
Ground track

The orbit data is extracted from the following two-line orbital elements,

1 28650U 05017B   16337.13509479  .00000385  00000-0  46950-4 0  9996
2 28650  97.6273 312.4751 0025014  64.6444 295.7359 14.88499258626855
Epoch (UTC): 02 December 2016 03:14:32
Eccentricity: 0.0025014
inclination: 97.6273°
perigee height: 585 km
apogee height: 620 km
right ascension of ascending node: 312.4751°
argument of perigee: 64.6444°
revolutions per day: 14.88499258
mean anomaly at epoch: 295.7359°
orbit number at epoch: 62685

The dashed part of the orbit path shows where the satellite is in the earth's shadow,  

DLR